CAPE
902 1116 1827 1980 2073 2084 2209 2156 2097 2018 2144 2339 2268 2321 2244 2366 2568 2396 2614 2807 2865 2832 2831 2852 2910 2766 2612 2561 2614 2449 2557 2846 2717 2796 2723 2809 2428 2554 2712 2712 2683 2627
1180 1416 1870 2215 2262 2071 2207 2300 2240 2176 2284 2420 2433 2370 2336 2438 2551 2356 2730 2856 2946 2890 2921 2917 2811 2723 2595 2314 2588 2656 2651 2714 2721 2627 2519 2552 2572 2672 2523 2543 2646 2719
1236 1225 1541 2058 2173 2375 2296 2312 2324 2336 2341 2449 2531 2578 2537 2550 2591 2369 2746 2888 2888 2938 3073 3108 2852 2703 2437 2135 2497 2560 2740 2823 2526 2199 2388 2347 2405 2434 2590 2611 2705 2567
1252 1202 1264 1770 2162 2580 2564 2437 2502 2503 2314 2505 2637 2733 2641 2788 2588 2332 2827 2962 2926 2951 3099 3037 2884 2833 2483 2250 2505 2594 2706 2776 2329 2383 2372 2523 2689 2413 2442 2600 2531 2678
1256 1249 1228 1486 2014 2379 2588 2556 2543 2627 2349 2562 2814 2668 2739 2788 2611 2335 2984 2968 3167 2957 2870 2967 2925 2900 2469 2408 2630 2766 2822 2656 2391 2392 2418 2420 2517 2375 2558 2736 2563 2547
1277 1316 1197 1248 1702 2159 2495 1984 1762 1612 1915 2785 2796 2703 2865 2924 2756 2546 2960 2947 2914 2620 2642 2901 2994 2760 2685 2517 2862 2940 2738 2706 2410 2182 2310 2242 2385 2491 2504 2541 2612 2501
1228 1171 1140 1151 1495 1834 1977 1971 1714 1235 1322 1498 2117 2821 2609 2688 2918 2732 2752 2677 2653 2532 2547 2884 2915 2743 2840 2576 2920 2997 2762 2678 2422 2221 2008 2049 2105 2174 2217 2461 2453 2448
1268 1204 1150 1080 1373 1457 1335 1593 1727 1504 1379 1255 1738 1736 2640 2643 2807 2667 2595 2343 2567 2390 2516 2775 2833 2786 2871 2548 2938 2804 2847 2567 2389 2125 1966 1876 1923 1863 2120 2346 2446 2377
1360 1256 1193 1237 1109 1154 1101 1088 1403 1252 1373 1181 1220 1722 1959 3018 2966 2692 2513 2419 2526 2497 2892 2912 2754 2826 2797 2686 2814 2739 2667 2468 2473 2203 2000 1866 1922 1924 1922 2120 2304 2354
1464 1462 1387 1314 1216 1170 1105 1013 864 980 1204 1281 1223 1166 1621 2219 2698 2586 2504 2412 2626 2719 3016 2764 2906 2876 2773 2733 2769 2620 2456 2487 2430 2319 2132 1938 1876 1768 1671 2099 2085 2173
1587 1506 1401 1246 1071 933 981 1014 910 1059 1115 1098 1306 1329 1143 1686 2513 2728 2703 2578 2724 2731 2769 2899 2974 2871 2732 2762 2618 2516 2427 2362 2280 2178 2092 1928 1796 1694 1723 1902 2011 2107
1619 1556 1359 1178 1084 1186 1062 1157 1074 1030 1179 968 1025 1349 1483 1243 1828 2827 2782 2479 2793 2603 2828 2807 2940 2949 2671 2556 2536 2510 2420 2372 2281 2069 1973 1836 1772 1691 1813 1878 2061 2103
1599 1591 1359 1109 1148 1059 1150 1131 1053 1030 1091 1206 1150 1266 1435 1198 1673 1619 2707 2442 2644 2792 2735 2895 2900 2686 2438 2504 2424 2513 2536 2452 2404 2174 1942 1838 1722 1749 1755 1827 1924 2116
1309 1354 1398 1292 1247 1226 1215 1347 1281 1282 1223 1324 1416 1451 1314 1209 1468 1689 2736 2640 2419 2539 2786 2750 2621 2431 2525 2531 2421 2516 2447 2560 2608 2297 2037 1866 1868 1806 1796 1930 2064 2023
1428 1408 1271 1302 1355 1404 1396 1317 1282 1260 1360 1535 1565 1322 1273 1218 1114 1419 2391 2714 2461 2626 2600 2702 2571 2460 2518 2538 2443 2518 2474 2554 2585 2361 2083 1957 2000 1968 1945 1962 2088 2164
1308 1148 1120 1140 1245 1273 1172 1147 1260 1310 1357 1464 1693 1638 1548 1451 1264 1318 1557 2065 2432 2310 2572 2694 2630 2582 2355 2381 2339 2485 2570 2539 2422 2110 1957 1989 1995 1934 1975 1975 1926 2200
1713 1535 1366 1349 1104 1200 1266 1121 1179 1268 1286 1518 1710 1763 1850 1794 1283 1305 1117 1562 1780 2481 2641 2768 2762 2621 2258 2257 2336 2456 2590 2469 2342 2242 2031 1929 2023 1977 1955 2074 1947 1807
1775 1527 1439 1449 1354 1228 1104 1100 1105 1160 1258 1392 1541 1727 1672 1603 1266 1313 1147 1096 1417 1854 2465 2484 2607 2502 2035 2002 2191 2208 2305 2315 2317 2211 2081 1942 1899 2028 2046 1961 1924 1766
1583 1443 1435 1351 1291 1162 1132 1054 1120 1165 1252 1517 1710 1608 1437 1206 1279 1427 1221 1039 1289 1686 2104 2401 2517 2272 1983 1951 1916 1935 2058 2315 2225 2115 2080 1980 1921 2012 1964 1881 1798 1753
1283 915 1078 1424 1294 1183 1136 1001 953 1189 1231 1293 1322 1269 1247 1154 1260 1252 1113 1190 1372 1354 2305 2570 2420 2104 1987 1923 1856 1849 1843 1966 1874 2061 2014 1954 1983 2018 2026 1922 1858 1879
1472 1682 1657 1727 1374 1281 1288 1096 852 889 939 1056 1023 1036 965 1088 1320 1194 982 1045 1502 1993 2284 2478 2479 2060 2014 1936 1918 1830 1721 1731 1950 1977 2072 2040 2018 1978 2033 2005 1844 1991
1642 1558 1682 1677 1445 1282 1239 1139 1040 868 763 855 916 909 851 894 976 919 903 1292 1548 2326 2238 2354 2495 2230 2036 1970 1925 1855 1762 1643 2058 2092 2043 1982 2150 2137 2038 1887 1813 2124
1570 1562 1704 1612 1488 1306 1022 1023 880 845 918 743 792 864 830 767 804 888 1088 1444 1940 2326 2416 2466 2468 2162 1999 1961 1913 1803 1664 1574 1918 1931 1848 1925 1954 1871 1849 1660 1768 2075
1893 1892 1674 1578 1324 1108 948 808 774 753 882 647 779 885 952 880 747 962 1089 1672 2160 2300 2487 2647 2344 2263 2005 1928 1852 1803 1602 1564 1747 1724 1730 1792 1764 1776 1416 1368 1583 1927
1770 1846 1697 1448 1275 1078 844 781 716 838 774 744 689 832 1002 1110 1013 944 1333 1884 2408 2474 2440 2671 2454 2285 1994 1868 1851 1758 1525 1627 1618 1532 1543 1671 1653 1625 1518 1323 1440 1672
1684 1714 1845 1537 1438 1135 1168 918 874 850 697 694 764 819 902 1044 960 1336 1883 2141 2384 2573 2476 2515 2800 2284 2021 1881 1796 1670 1491 1483 1539 1361 1321 1578 1598 1445 1421 1393 1799 1496
Wind_Speed
46 50 50 44 46 50 46 41 39 37 36 35 30 27 23 25 25 23 25 24 20 18 19 21 22 20 19 17 12 11 11 11 11 10 11 11 12 11 12 13 14 15
44 44 47 45 47 51 47 41 38 37 37 35 31 28 26 26 26 24 26 24 20 18 20 22 22 22 22 19 15 13 13 13 11 11 10 10 10 12 11 13 14 15
50 46 43 42 44 48 45 41 39 38 38 36 32 29 28 27 27 25 25 24 20 20 19 21 22 24 24 22 18 16 14 14 13 12 11 10 11 11 12 12 14 15
49 46 44 41 43 47 47 41 38 37 38 36 32 31 30 29 28 25 24 23 23 21 20 20 22 26 26 23 20 17 15 16 16 13 12 12 12 13 12 13 14 14
47 48 47 45 43 45 50 43 36 37 36 35 34 33 32 30 29 25 24 23 25 23 21 19 22 27 25 22 20 19 17 18 18 16 14 13 13 14 13 14 15 15
49 50 49 46 43 41 49 54 57 51 44 39 38 37 35 32 31 27 24 24 24 24 20 18 21 25 24 21 22 20 19 20 21 19 15 14 14 15 15 14 15 16
48 49 50 49 45 41 46 60 52 47 56 56 46 41 38 34 31 28 25 24 23 23 21 18 21 25 25 22 22 21 21 21 23 21 17 15 15 15 16 16 15 16
49 49 50 49 46 42 41 51 51 46 46 47 48 43 38 34 30 29 28 25 23 22 22 20 22 25 27 24 23 21 22 23 23 22 17 16 16 14 17 17 17 17
56 54 53 52 49 46 42 46 50 46 48 50 49 47 40 34 30 29 28 28 27 25 24 23 23 26 28 26 24 22 22 23 23 21 18 16 16 15 16 18 18 19
60 56 56 55 53 50 45 43 47 47 47 47 50 47 41 36 32 29 29 29 30 29 28 27 27 29 29 28 26 22 21 23 22 21 18 16 16 16 15 18 20 21
55 57 58 54 51 50 48 46 44 45 45 45 49 50 47 41 34 30 27 26 28 28 29 30 31 32 30 29 27 23 21 23 23 20 18 17 17 16 16 17 20 22
59 60 57 56 55 52 48 47 46 45 44 44 44 46 49 45 36 31 28 24 25 26 27 29 31 32 31 29 26 23 22 24 23 20 17 17 17 16 16 17 19 23
60 57 55 53 54 54 52 49 48 46 44 43 40 40 46 46 35 27 27 24 23 25 24 24 24 26 28 28 25 23 23 23 23 19 17 16 17 17 16 18 20 23
61 58 53 52 54 54 51 49 50 48 44 44 42 39 44 49 36 23 24 24 24 25 25 24 22 24 26 26 24 23 23 23 21 18 17 17 17 18 17 19 21 23
62 60 59 56 55 53 52 51 51 49 48 47 42 38 43 46 40 33 26 26 27 28 28 28 27 27 27 26 23 22 22 22 20 18 18 18 18 18 18 19 21 24
61 60 57 55 54 52 53 52 51 50 51 49 41 41 46 50 47 42 44 35 29 29 31 31 31 32 27 24 22 22 23 23 21 19 18 18 19 20 19 20 22 25
62 59 58 55 53 53 53 53 54 53 53 49 43 50 54 49 43 39 36 37 34 31 33 33 33 33 28 26 25 26 25 24 21 19 19 19 20 21 21 22 24 28
62 61 58 55 53 53 54 52 56 55 53 54 53 49 40 42 42 36 35 38 38 36 36 35 34 34 32 30 29 27 27 24 21 20 20 20 20 22 24 26 27 33
68 63 59 58 56 56 57 57 57 53 50 51 52 48 41 40 37 36 35 36 38 37 36 35 37 37 34 32 31 29 27 24 21 20 22 21 22 23 25 28 30 35
48 46 52 59 60 60 60 59 55 51 46 47 48 47 45 41 38 39 39 39 40 40 40 36 41 36 35 34 33 31 28 24 22 23 23 23 24 26 27 29 32 36
43 39 43 54 60 59 54 49 47 48 47 44 44 44 43 43 42 42 40 43 45 46 39 37 40 35 34 35 34 32 29 25 24 25 24 25 27 29 31 31 31 33
46 45 43 49 55 57 51 45 43 42 43 44 44 44 44 43 40 33 32 38 43 44 38 36 38 33 34 35 34 32 31 27 26 26 27 27 29 32 32 29 28 31
42 44 44 46 49 51 46 44 41 40 42 45 45 46 42 38 34 29 30 34 37 37 39 38 36 30 33 34 34 33 32 28 27 27 27 29 31 30 28 26 26 29
39 42 45 42 39 38 39 43 43 42 42 44 42 44 42 37 31 27 30 34 37 36 37 37 34 32 32 33 33 32 31 30 29 28 28 29 29 26 25 24 24 31
40 42 44 41 40 36 35 39 41 41 42 44 42 42 38 33 25 23 27 34 37 37 34 36 36 34 29 30 31 30 30 30 30 27 27 27 26 24 23 24 23 27
42 44 43 40 40 41 41 43 45 45 43 42 42 44 40 28 21 27 33 36 37 35 34 35 36 34 30 27 28 28 29 31 30 27 24 24 23 23 24 24 26 27
Wind_Direction
230 223 226 228 223 216 217 225 232 237 233 232 230 227 228 231 236 239 240 245 249 245 245 246 238 239 244 245 239 249 264 276 280 292 311 315 322 325 325 325 325 328
237 234 227 227 223 216 218 224 229 236 236 232 233 229 228 231 236 241 242 248 251 251 249 250 242 237 240 242 239 247 256 270 276 280 292 302 308 315 321 320 319 321
234 236 231 231 225 217 220 224 226 232 234 232 234 233 229 232 236 237 242 247 250 250 250 251 245 236 237 242 242 245 249 263 273 270 281 296 298 304 309 312 311 320
232 233 231 232 230 221 220 224 227 230 232 232 236 236 233 233 234 238 240 248 248 250 250 253 245 233 236 245 247 245 246 255 266 265 269 276 285 294 297 303 310 314
231 230 229 229 229 222 217 219 227 228 231 232 234 235 237 236 236 237 237 245 249 253 258 261 244 231 235 247 252 247 250 253 262 264 264 269 277 286 293 300 307 315
227 228 228 228 228 223 219 216 209 207 214 226 229 231 234 235 237 238 240 247 249 256 264 262 242 230 237 250 252 251 255 255 260 267 265 270 273 279 287 297 304 313
227 227 227 226 225 221 220 225 223 215 207 199 210 226 230 233 236 239 243 247 254 256 264 259 243 235 238 246 249 253 259 261 263 268 271 271 274 281 290 296 306 307
229 228 228 228 226 224 220 223 227 223 223 217 202 208 226 231 237 239 241 249 253 257 259 259 249 244 242 244 248 254 258 263 264 268 273 276 278 279 290 295 299 304
230 229 229 229 230 226 224 226 229 221 222 225 222 205 208 224 232 239 243 247 249 252 255 257 257 251 245 245 248 251 259 264 265 269 276 278 282 284 288 295 299 300
227 228 230 232 230 227 228 229 229 231 225 225 227 225 207 208 223 233 242 244 247 254 254 252 256 253 247 244 248 252 254 264 266 269 274 281 280 284 282 290 299 299
229 228 228 231 233 232 232 230 233 235 231 229 231 228 222 204 210 225 235 242 248 258 255 252 256 255 248 242 244 245 253 259 266 269 273 281 284 280 282 285 295 299
226 228 227 227 227 230 233 232 232 235 234 230 235 235 228 221 201 213 223 239 250 254 252 257 259 250 240 239 242 247 250 256 265 270 275 281 284 285 280 286 288 298
227 229 228 227 229 227 228 230 230 233 237 237 236 237 234 227 208 197 216 232 246 246 248 258 257 241 232 235 242 248 253 259 264 267 275 278 282 287 283 286 291 292
226 229 231 230 230 229 229 229 230 231 233 235 237 238 231 222 212 198 216 228 238 239 239 246 246 238 236 239 242 249 253 260 262 265 272 277 278 282 284 285 291 292
225 227 228 229 231 232 232 232 231 231 230 228 232 232 226 218 208 197 213 228 231 234 234 240 241 241 239 243 247 251 258 260 262 262 268 274 276 279 282 285 287 291
224 226 228 229 231 232 234 234 233 233 230 227 226 221 217 218 214 211 202 204 224 230 231 236 239 238 243 258 255 251 258 259 259 260 267 272 275 278 278 282 287 290
222 226 226 229 230 229 233 234 234 235 232 229 224 220 217 223 227 216 226 209 205 225 228 232 238 239 256 258 261 262 259 260 261 261 269 275 273 274 275 278 284 284
221 225 225 227 228 230 231 233 233 235 234 229 228 228 224 234 233 232 232 228 211 211 221 227 235 244 257 256 256 264 264 263 263 263 271 276 276 275 274 274 280 281
210 218 226 226 226 228 230 231 233 233 234 233 232 237 244 244 245 242 238 233 221 214 216 223 230 246 253 254 254 259 263 267 267 269 274 277 277 277 277 277 279 282
223 213 215 221 225 227 228 230 231 231 232 232 234 240 244 246 245 246 244 236 224 216 215 220 228 240 251 251 253 259 263 260 264 270 274 280 284 285 283 282 282 282
219 219 219 219 222 224 226 228 230 229 229 230 235 238 242 248 251 247 237 225 215 214 214 217 225 239 244 248 253 259 265 263 260 267 274 279 286 289 288 285 283 280
218 219 220 221 224 226 225 224 226 229 230 228 231 234 239 244 237 221 204 199 205 210 212 215 223 239 243 248 254 258 264 258 260 264 271 278 282 285 286 284 281 278
216 217 218 220 226 230 230 226 225 225 226 229 229 233 235 231 213 187 177 190 201 202 206 214 222 232 246 248 253 260 258 256 261 266 272 280 284 285 285 280 278 280
214 216 218 220 221 225 226 225 224 223 223 226 229 235 226 207 189 176 180 192 197 199 203 212 222 229 244 252 256 263 263 259 260 266 273 282 288 288 283 279 278 288
217 219 220 221 222 220 221 223 224 223 223 225 225 226 216 197 183 187 191 197 198 201 204 214 224 229 240 253 261 268 264 257 259 263 273 284 290 293 288 282 282 291
220 222 220 222 224 226 224 224 223 221 223 228 226 223 214 201 203 206 205 202 204 205 212 215 226 231 237 250 265 269 268 259 256 260 272 285 293 297 297 288 281 282